TimeMDT,TemperatureF,Dew PointF,Humidity,Sea Level PressureIn,VisibilityMPH,Wind Direction,Wind SpeedMPH,Gust SpeedMPH,PrecipitationIn,Events,Conditions,WindDirDegrees,DateUTC
12:53 AM,44.1,37.9,79,29.99,10.0,NE,3.5,-,N/A,,Clear,40,2013-05-25 06:53:00
1:53 AM,43.0,37.0,80,29.98,10.0,ENE,5.8,-,N/A,,Clear,60,2013-05-25 07:53:00
2:53 AM,44.1,37.9,79,29.98,10.0,ENE,4.6,-,N/A,,Clear,60,2013-05-25 08:53:00
3:53 AM,43.0,39.0,86,29.98,10.0,East,3.5,-,N/A,,Mostly Cloudy,100,2013-05-25 09:53:00
4:53 AM,45.0,41.0,86,29.97,10.0,NE,5.8,-,0.00,,Scattered Clouds,40,2013-05-25 10:53:00
5:53 AM,46.0,42.1,86,29.97,10.0,NE,6.9,-,N/A,,Scattered Clouds,50,2013-05-25 11:53:00
6:53 AM,50.0,44.1,80,29.97,10.0,NE,4.6,-,N/A,,Overcast,50,2013-05-25 12:53:00
7:53 AM,57.0,46.0,67,29.95,10.0,East,8.1,-,N/A,,Mostly Cloudy,80,2013-05-25 13:53:00
8:53 AM,62.1,46.9,58,29.96,10.0,East,8.1,-,N/A,,Mostly Cloudy,100,2013-05-25 14:53:00
9:53 AM,64.9,48.0,54,29.94,10.0,ENE,10.4,-,N/A,,Overcast,70,2013-05-25 15:53:00
10:53 AM,68.0,41.0,37,29.91,10.0,East,21.9,29.9,N/A,,Overcast,100,2013-05-25 16:53:00
11:53 AM,69.1,50.0,51,29.91,10.0,ENE,17.3,-,N/A,,Overcast,70,2013-05-25 17:53:00
12:53 PM,71.1,51.1,49,29.90,10.0,East,21.9,29.9,N/A,,Partly Cloudy,90,2013-05-25 18:53:00
1:53 PM,75.0,50.0,41,29.88,10.0,East,21.9,31.1,N/A,,Clear,90,2013-05-25 19:53:00
2:53 PM,77.0,48.9,37,29.86,10.0,East,21.9,31.1,N/A,,Clear,90,2013-05-25 20:53:00
3:53 PM,77.0,54.0,45,29.84,10.0,ESE,12.7,20.7,N/A,,Scattered Clouds,120,2013-05-25 21:53:00
4:53 PM,75.0,55.0,50,29.83,10.0,East,16.1,29.9,N/A,,Scattered Clouds,100,2013-05-25 22:53:00
5:53 PM,72.0,55.0,55,29.83,10.0,East,16.1,27.6,N/A,,Scattered Clouds,90,2013-05-25 23:53:00
6:02 PM,71.6,53.6,53,29.82,10.0,East,20.7,26.5,N/A,Thunderstorm,Partly Cloudy,90,2013-05-26 00:02:00
6:53 PM,66.9,54.0,63,29.81,10.0,East,18.4,28.8,N/A,,Clear,80,2013-05-26 00:53:00
7:00 PM,66.2,53.6,64,29.80,10.0,ENE,18.4,-,N/A,Thunderstorm,Thunderstorm,70,2013-05-26 01:00:00
7:35 PM,66.2,53.6,64,29.87,10.0,NNE,12.7,-,0.00,Rain-Thunderstorm,Light Thunderstorms and Rain,30,2013-05-26 01:35:00
7:53 PM,63.0,55.9,78,29.86,4.0,NE,12.7,-,0.10,Rain-Thunderstorm,Heavy Thunderstorms and Rain,50,2013-05-26 01:53:00
8:53 PM,62.1,57.0,84,29.85,9.0,East,26.5,31.1,0.31,Rain-Thunderstorm,Light Thunderstorms and Rain,90,2013-05-26 02:53:00
9:19 PM,60.8,53.6,77,29.93,10.0,ESE,12.7,21.9,0.03,Rain,Light Rain,110,2013-05-26 03:19:00
9:42 PM,60.8,55.4,82,29.92,10.0,ENE,13.8,-,0.06,Rain-Thunderstorm,Light Rain,70,2013-05-26 03:42:00
9:53 PM,61.0,55.9,83,29.92,10.0,ENE,17.3,-,0.06,Rain,Light Rain,70,2013-05-26 03:53:00
10:53 PM,59.0,54.0,83,29.91,10.0,East,13.8,-,0.00,,Clear,90,2013-05-26 04:53:00
11:53 PM,59.0,54.0,83,29.90,10.0,East,15.0,-,N/A,,Clear,90,2013-05-26 05:53:00